COSMOS 2491 DEB *, 45128

Orbit data source: Space-Track

COSMOS 2491 DEB *, 45128 is space debris in LEO originally from a launch on Wed, 25 Dec 2013 UTC launched from the Plesetsk Missile And Space Complex (PKMTR). Debris objects in space refer to the collection of defunct objects orbiting the Earth. Examples of debris include non-operational satellites, rocket bodies, and fragments generated from explosions, collisions, or faulty payload assembly.

Loading next visibility...
Identifier
45128, 2013-076AA
Orbit
LEO
Country
Flag of CISCIS
Related business
Manufacturer
TsNIIKhM
Mission
Spacecraft
Bus & Motor
Unknown
Mass
Unknown
Launch date (UTC)
2013-12-25 (12 years ago)
Launch vehicle
Unknown
Launch site
Plesetsk Missile And Space Complex (PKMTR)
Object type
Payload
Rocket body
Debris
Shape & HBR
Unknown shape, 0.1 m
Radar Cross Section
Small (<0.1 m²)

Expand to show TLE details & history
Last TLE update: 10 hours ago

TLE from 10 hours ago
0 COSMOS 2491 DEB *
1 45128U 13076AA  26095.21385281  .00009883  00000-0  29781-2 0  9996
2 45128  81.2074  74.2112 0025213  84.2371 276.1691 14.42286293 51525
Epoch: 2026-04-05T05:07Z
TLE epoch observation values (Epoch: 2026-04-05T05:07:56.882Z)
Latitude
-0.00005°
Longitude
163.70169°
Altitude
752.01 km
Speed
7.48 km/s
True Right ascension
04h 56m 50s
True Declination
0° 00' 00"
Sunlit
Object was in daylight at epoch
Visualization orbit readout
Latitude
Unknown
Longitude
Unknown
Altitude
Unknown
Speed
Unknown
Apparent Right ascension
Unknown
Apparent Declination
Unknown
Sunlit
N/A
Visualization observer readout
Local Sidereal Time
21:32:00
Azimuth
Unknown
Elevation
Unknown
Doppler factor
Unknown
Orbital elements
Apogee altitude
766.055 km
Perigee altitude
730.12 km
Semi-major axis
7,126.224 km
Eccentricity
0.00252
Inclination
81.2074°
RAAN
74.2112°
Arg. of periapsis
84.2371°
True anomaly
275.88176°
Mean anomaly
276.1691°
Eccentric anomaly
276.02544°
Mean motion
3.6079 °/min
Orbital period
99.78 mins
BSTAR
0.0029781
Loading maneuver chart data...
Computing Atmospheric mass density...
Loading historical data...
Loading historical data...
Loading historical data...
Loading historical data...
Loading historical data...
Loading historical data...
Loading historical data...

Documentation

Showing up to 5 results
|